Wind_Speed
25 25 25 24 25 26 26 27 27 27 27 28 27 28 28 29 29 29 30 29 29 30 30 30 30 30 30 30 30 30 30 30 30 30 29 28 29 28 28 28 28 28 28
26 26 26 26 26 26 27 26 27 28 28 29 29 29 29 29 29 29 30 30 31 31 31 31 31 32 31 30 30 31 32 31 31 31 30 30 30 29 28 27 27 27 28
26 27 27 28 28 28 28 28 29 29 30 30 30 31 31 31 31 30 31 31 31 31 31 31 31 31 31 31 31 32 33 32 32 31 31 31 30 29 29 28 27 27 27
27 27 28 28 29 29 29 29 30 30 30 31 31 32 32 32 32 31 30 30 30 30 31 31 31 32 32 31 32 32 33 33 33 32 32 31 30 30 30 29 29 28 28
29 28 27 28 29 29 28 29 29 30 31 31 31 32 32 32 31 31 31 31 30 31 31 30 31 31 32 32 32 32 32 33 33 32 32 32 32 31 31 30 30 30 29
27 26 27 28 28 28 28 29 29 30 31 32 32 32 32 32 32 32 31 31 31 30 30 31 31 31 31 31 31 31 32 33 33 32 32 32 33 32 32 32 31 30 29
27 26 26 26 26 26 27 28 29 30 30 31 31 31 31 32 32 32 32 32 31 31 31 32 32 31 31 32 32 31 31 31 31 30 31 32 32 32 31 31 30 30 29
26 25 25 25 25 26 26 27 27 28 29 30 30 30 31 31 31 32 32 32 32 31 31 30 31 31 32 32 32 32 31 30 30 30 30 30 31 31 30 30 30 30 30
25 25 25 24 24 25 26 26 27 28 29 29 29 29 30 30 31 31 32 31 30 30 30 30 30 30 30 30 30 30 30 29 29 30 30 30 30 30 30 30 30 30 30
23 23 23 24 24 25 26 26 27 28 29 29 29 29 29 28 28 29 30 29 28 29 30 29 30 30 30 29 29 29 29 28 28 29 29 29 29 29 30 30 30 30 29
23 23 24 24 25 26 26 26 27 28 28 28 28 28 27 27 28 28 28 28 28 29 29 29 29 30 29 29 29 29 29 29 29 29 28 28 28 28 29 29 29 29 29
23 22 22 23 24 24 25 25 26 26 26 26 26 26 27 27 28 27 27 28 29 29 29 29 28 28 28 28 28 28 28 29 29 28 28 27 27 28 28 28 28 28 29
22 22 22 22 23 24 24 24 24 24 25 25 25 25 26 26 26 26 26 26 27 28 27 26 26 26 27 27 27 26 26 26 27 27 27 27 27 27 27 28 27 27 27
21 21 21 22 22 23 23 23 23 24 24 24 24 24 25 25 25 25 25 25 25 24 24 24 24 25 25 24 25 25 26 25 25 26 26 26 26 26 26 26 27 27 26
20 21 21 21 22 22 22 22 22 23 23 23 22 23 23 23 22 23 22 22 23 22 22 22 22 22 22 22 23 24 25 25 25 24 24 24 24 24 25 25 25 26 25
19 20 20 21 22 22 22 22 22 22 22 22 21 21 21 20 21 21 21 21 20 20 20 20 21 21 21 21 21 21 22 22 22 22 22 23 23 24 24 24 24 25 25
19 20 20 20 21 21 21 21 21 21 21 20 20 20 19 19 19 20 20 19 19 19 19 20 20 20 20 19 19 20 20 19 20 21 21 22 22 23 23 23 23 23 24
19 20 20 20 20 20 20 20 20 20 19 19 18 18 18 18 18 19 19 17 17 17 17 17 17 17 17 17 18 17 17 18 19 19 20 21 21 21 22 22 22 22 23
18 19 19 19 19 19 18 19 19 19 18 18 17 17 17 17 17 17 17 16 16 16 16 17 16 15 15 15 15 15 16 17 17 18 19 18 18 19 19 19 20 20 20
17 18 18 18 17 17 17 17 18 18 18 17 16 16 16 16 16 15 15 15 14 14 14 15 15 14 14 14 14 15 16 16 17 18 17 16 17 16 16 16 16 16 17
16 17 17 17 16 16 15 15 16 17 17 16 15 15 16 15 15 13 13 13 14 13 13 13 13 13 13 14 14 14 15 15 15 16 14 14 14 13 13 13 13 13 14
15 15 15 15 15 15 14 14 15 16 16 16 16 15 15 13 13 12 13 13 13 12 12 13 14 14 13 14 13 14 14 15 14 13 13 13 13 12 11 11 11 12 12
13 14 14 14 14 14 14 15 15 15 15 16 15 15 14 13 13 12 13 12 12 12 12 13 13 13 14 14 14 14 14 14 14 13 13 12 12 11 11 10 10 11 12
13 14 14 14 14 14 14 15 15 15 15 15 15 14 14 14 13 13 12 12 12 12 13 13 13 13 13 13 13 14 14 13 13 12 12 11 11 10 10 10 9 9 10
12 13 13 13 13 14 14 15 15 15 15 14 14 14 15 15 14 13 13 12 13 13 13 12 13 13 13 13 13 13 13 13 12 11 11 11 10 9 9 8 8 7 7
10 12 13 13 14 14 14 15 15 14 14 14 14 14 15 15 15 14 13 13 14 14 14 13 13 13 13 13 13 13 13 12 12 11 10 10 9 8 8 8 7 7 7
Wind_Direction
280 279 280 283 285 286 286 284 284 285 285 286 286 287 285 284 287 287 285 284 282 281 281 280 278 277 279 281 283 283 283 282 282 281 281 279 277 274 271 269 269 267 266
284 286 284 284 283 285 285 284 284 285 285 285 287 288 288 287 289 289 289 286 284 281 278 279 278 277 278 280 282 281 281 281 281 279 278 277 275 273 271 270 270 267 265
284 284 283 282 283 284 284 284 284 285 285 286 286 286 287 288 288 288 287 287 284 281 278 278 279 279 280 280 281 281 279 279 280 279 278 277 274 272 270 270 270 268 265
286 285 283 283 284 284 284 284 285 285 284 285 286 286 286 287 288 288 287 286 285 282 281 280 280 280 280 280 281 281 280 279 279 278 276 275 274 272 271 270 269 267 264
290 288 287 287 285 285 284 285 286 285 287 286 286 288 288 288 288 288 286 285 284 282 281 281 281 280 280 281 281 282 281 280 280 278 275 273 273 271 270 269 267 266 265
292 289 289 288 286 285 285 286 286 287 288 288 287 287 288 288 288 287 285 284 284 283 282 281 281 281 282 282 282 283 282 280 279 278 276 274 272 270 269 268 266 265 265
293 291 288 285 285 286 287 288 288 288 288 288 288 288 287 288 288 286 285 283 284 283 282 282 282 283 283 283 283 284 283 282 280 279 277 274 272 270 269 267 265 264 263
294 293 290 286 287 287 288 289 289 289 291 290 289 289 288 287 287 287 286 284 283 283 283 284 284 283 283 283 284 284 283 282 280 279 277 275 272 271 269 266 264 263 263
294 292 293 291 291 290 290 291 290 290 292 291 290 290 289 288 288 289 288 287 286 286 285 285 286 284 283 283 283 284 283 281 280 278 277 275 273 272 269 266 266 266 265
296 295 295 296 296 293 293 292 291 291 292 292 291 291 291 291 292 290 289 288 288 287 286 285 286 284 283 283 283 283 282 281 280 278 276 275 273 271 270 268 266 265 265
296 298 298 297 296 296 296 294 293 292 291 292 292 293 293 293 293 294 293 291 290 290 288 288 289 287 284 283 284 285 284 282 280 279 278 276 274 271 269 267 266 265 264
299 301 302 302 301 299 298 297 296 294 293 292 291 291 292 294 295 295 294 292 291 291 291 292 289 288 286 284 284 284 285 284 281 279 278 276 274 272 270 267 266 265 263
300 302 302 303 304 304 301 300 299 297 297 295 294 294 293 295 297 297 295 294 293 293 294 293 290 289 288 287 285 286 287 286 282 280 279 277 275 273 270 269 267 266 264
303 303 304 306 308 309 307 306 304 302 302 302 300 299 298 299 298 299 298 297 296 294 294 294 293 291 289 287 285 286 288 288 286 283 280 279 277 274 271 269 267 266 264
304 306 308 309 310 311 311 311 310 309 308 307 305 305 303 301 300 300 300 299 300 299 298 298 296 293 291 288 289 289 290 289 288 286 284 281 279 276 273 270 266 264 262
308 310 310 310 311 312 313 314 314 314 313 310 310 309 308 306 304 305 305 306 306 304 301 301 299 298 297 294 293 293 292 291 289 286 284 281 279 276 274 270 267 264 261
312 312 312 312 314 315 315 316 317 317 316 314 313 313 312 312 311 310 311 310 309 309 303 300 301 300 299 299 298 297 296 294 292 289 285 283 280 277 274 272 268 264 261
316 316 314 313 314 316 317 318 318 319 320 318 316 315 315 313 314 314 316 315 315 313 310 309 304 304 304 303 304 303 302 299 295 292 290 287 282 277 276 273 269 265 263
322 322 320 318 317 319 320 320 322 321 322 323 321 320 317 317 318 319 317 319 319 318 315 313 313 309 304 303 304 306 307 303 298 296 295 293 289 284 278 275 270 265 263
325 326 326 325 322 320 322 325 327 326 325 325 324 323 322 321 320 321 319 319 320 320 316 314 314 315 312 310 308 310 310 307 304 301 298 295 295 291 285 277 272 267 262
328 330 332 335 336 333 328 329 330 330 331 332 331 329 327 326 325 325 325 326 324 323 321 322 321 321 321 320 318 319 318 314 310 308 304 303 302 298 291 283 273 268 263
332 335 339 341 343 343 341 339 339 339 340 341 340 336 333 330 330 331 329 328 328 330 329 327 325 323 322 325 325 326 324 323 321 318 315 313 312 306 298 290 279 273 268
335 339 343 344 345 346 348 347 347 346 346 347 346 344 343 344 343 339 336 333 333 333 334 334 331 329 328 329 330 329 327 327 326 325 326 321 317 315 307 299 290 280 275
338 342 345 348 349 351 352 353 352 353 352 352 353 353 353 351 351 350 347 344 343 342 341 340 341 341 340 340 338 338 336 333 331 330 328 327 324 321 317 304 299 289 281
340 345 349 353 354 355 356 355 356 358 0 1 0 359 358 357 356 357 355 354 353 350 349 346 343 344 344 342 342 342 341 340 340 339 335 332 331 327 324 318 312 306 296
349 353 356 357 358 359 359 359 359 1 3 4 4 5 4 4 4 1 359 359 359 357 354 353 352 350 348 349 350 348 346 344 345 346 344 339 337 336 336 331 324 316 305
Height
5849 5848 5847 5847 5847 5846 5845 5845 5843 5842 5841 5840 5839 5838 5837 5836 5835 5834 5832 5830 5829 5828 5827 5826 5825 5824 5824 5823 5822 5821 5820 5820 5819 5818 5818 5818 5818 5818 5819 5819 5820 5820 5821
5846 5844 5843 5842 5841 5840 5840 5839 5838 5837 5836 5835 5834 5833 5832 5830 5829 5827 5826 5824 5822 5821 5820 5819 5818 5817 5816 5815 5815 5814 5813 5812 5811 5811 5810 5811 5812 5811 5811 5812 5813 5813 5814
5841 5840 5839 5838 5836 5835 5834 5834 5833 5831 5830 5829 5828 5826 5825 5823 5822 5820 5819 5817 5815 5814 5812 5811 5810 5809 5808 5808 5807 5806 5805 5805 5804 5803 5803 5803 5803 5804 5805 5805 5806 5806 5807
5837 5833 5833 5832 5831 5830 5829 5828 5826 5825 5823 5822 5821 5819 5818 5816 5814 5813 5811 5810 5808 5807 5805 5804 5803 5802 5801 5800 5799 5798 5797 5796 5796 5795 5794 5795 5795 5796 5797 5798 5798 5799 5800
5831 5828 5826 5826 5825 5824 5823 5821 5820 5819 5818 5816 5814 5812 5810 5809 5807 5806 5804 5802 5801 5800 5798 5797 5796 5795 5794 5792 5791 5790 5789 5788 5787 5787 5787 5787 5787 5787 5788 5790 5791 5791 5793
5825 5822 5822 5821 5819 5818 5817 5816 5814 5812 5811 5809 5807 5805 5803 5801 5800 5798 5797 5795 5793 5792 5791 5790 5789 5787 5786 5785 5783 5782 5781 5780 5779 5779 5778 5778 5779 5779 5780 5781 5783 5783 5785
5821 5818 5817 5815 5814 5813 5811 5809 5808 5806 5804 5802 5800 5798 5796 5794 5792 5791 5789 5787 5786 5785 5783 5782 5781 5779 5778 5777 5775 5774 5773 5772 5771 5770 5770 5770 5770 5771 5772 5773 5774 5775 5777
5816 5814 5812 5810 5809 5807 5805 5803 5801 5799 5797 5795 5793 5791 5789 5787 5785 5783 5781 5779 5778 5777 5775 5774 5772 5771 5769 5768 5766 5765 5765 5764 5763 5762 5762 5762 5762 5762 5763 5764 5766 5767 5769
5812 5809 5806 5804 5803 5801 5800 5797 5795 5793 5791 5788 5786 5784 5782 5780 5778 5776 5774 5772 5770 5768 5767 5766 5764 5762 5761 5760 5758 5757 5756 5755 5754 5754 5753 5753 5753 5754 5754 5755 5757 5759 5760
5807 5804 5802 5800 5798 5796 5794 5792 5789 5787 5784 5782 5779 5778 5775 5773 5771 5769 5767 5764 5762 5761 5759 5758 5756 5755 5753 5752 5750 5749 5748 5747 5746 5745 5745 5745 5745 5745 5746 5746 5748 5749 5751
5802 5800 5798 5796 5793 5791 5788 5785 5783 5780 5778 5775 5773 5771 5768 5766 5764 5762 5760 5757 5755 5754 5752 5750 5749 5747 5745 5744 5743 5742 5740 5739 5738 5738 5737 5737 5737 5737 5737 5738 5739 5741 5742
5797 5796 5793 5790 5788 5785 5782 5779 5777 5774 5772 5769 5766 5764 5762 5760 5757 5755 5753 5750 5748 5746 5745 5743 5741 5739 5738 5736 5735 5734 5733 5731 5730 5730 5729 5729 5729 5729 5729 5730 5731 5732 5733
5793 5791 5788 5786 5783 5780 5776 5773 5771 5768 5765 5762 5760 5757 5755 5753 5750 5748 5745 5743 5741 5739 5737 5735 5734 5732 5730 5729 5728 5726 5725 5724 5723 5722 5721 5721 5721 5721 5721 5721 5722 5723 5724
5789 5786 5784 5781 5778 5775 5771 5768 5765 5762 5759 5756 5753 5751 5748 5746 5744 5741 5739 5736 5734 5732 5731 5729 5727 5725 5724 5722 5721 5720 5718 5717 5716 5714 5714 5713 5713 5713 5713 5713 5714 5715 5716
5785 5782 5779 5776 5773 5770 5766 5763 5759 5756 5753 5750 5748 5745 5743 5740 5738 5735 5733 5731 5729 5726 5725 5723 5721 5719 5717 5716 5714 5713 5712 5710 5709 5707 5707 5706 5706 5705 5705 5706 5706 5707 5708
5781 5778 5775 5772 5769 5765 5762 5758 5755 5752 5748 5745 5742 5740 5737 5735 5733 5730 5728 5725 5723 5721 5719 5717 5715 5713 5712 5710 5708 5707 5706 5704 5702 5701 5700 5699 5699 5698 5698 5698 5699 5700 5701
5777 5774 5771 5768 5765 5761 5758 5754 5751 5748 5744 5741 5738 5736 5733 5731 5728 5726 5723 5721 5719 5717 5715 5713 5711 5709 5707 5705 5704 5702 5700 5699 5697 5696 5694 5693 5692 5691 5691 5691 5691 5692 5693
5774 5770 5767 5764 5761 5757 5754 5751 5747 5744 5741 5738 5735 5732 5730 5727 5725 5722 5720 5717 5715 5714 5711 5709 5707 5705 5703 5701 5699 5697 5696 5694 5692 5691 5689 5688 5686 5685 5684 5684 5684 5685 5686
5771 5767 5764 5760 5757 5754 5751 5747 5744 5741 5738 5735 5732 5730 5727 5724 5722 5719 5717 5714 5713 5710 5708 5706 5704 5702 5700 5698 5696 5694 5692 5690 5688 5686 5684 5682 5681 5680 5679 5678 5678 5678 5679
5768 5765 5761 5758 5754 5751 5748 5745 5742 5738 5736 5733 5730 5727 5724 5721 5719 5716 5714 5712 5710 5707 5706 5703 5701 5699 5697 5695 5693 5691 5689 5686 5684 5682 5680 5678 5676 5675 5673 5673 5673 5673 5673
5766 5763 5760 5756 5752 5749 5746 5743 5740 5737 5734 5731 5728 5725 5722 5719 5716 5714 5712 5709 5707 5705 5703 5701 5699 5697 5694 5692 5690 5688 5685 5683 5681 5678 5676 5675 5673 5671 5670 5669 5668 5668 5669
5765 5762 5758 5755 5751 5748 5744 5741 5738 5735 5732 5729 5726 5723 5720 5717 5714 5712 5710 5707 5705 5703 5701 5699 5697 5694 5692 5690 5688 5685 5683 5680 5678 5676 5674 5672 5670 5668 5667 5666 5665 5665 5665
5764 5760 5757 5754 5751 5747 5744 5741 5738 5734 5731 5728 5725 5722 5719 5716 5713 5711 5708 5706 5704 5702 5700 5698 5695 5693 5691 5688 5686 5683 5680 5678 5676 5673 5671 5669 5668 5666 5665 5664 5663 5662 5662
5763 5760 5757 5753 5750 5747 5744 5741 5737 5734 5731 5728 5725 5722 5719 5716 5713 5711 5708 5706 5703 5701 5699 5697 5694 5692 5689 5687 5684 5682 5679 5677 5674 5672 5670 5668 5666 5664 5663 5661 5660 5660 5659
5762 5759 5756 5753 5750 5747 5744 5740 5737 5734 5731 5728 5725 5722 5719 5716 5713 5710 5708 5706 5703 5700 5698 5696 5693 5691 5688 5686 5683 5680 5678 5675 5673 5671 5669 5667 5665 5663 5661 5660 5659 5658 5657
5761 5759 5756 5753 5750 5747 5744 5741 5737 5734 5731 5728 5725 5722 5720 5717 5714 5711 5708 5706 5703 5700 5698 5695 5692 5690 5687 5685 5682 5680 5677 5674 5672 5670 5668 5666 5664 5662 5661 5659 5658 5657 5656